STARLINK-36755

Last updated on Sat Mar 14 2026 00:02:06 GMT+0000 (Coordinated Universal Time)

1 67726U 26026F 26072.58334491 -.01784253 00000+0 -45912-1 0 9991 2 67726 97.2857 127.0943 0001696 91.4166 138.6348 15.42315733 5948

Satellite not in orbit